Flight Track Log - Related Links

Times and Time Zones

All times are in EDT time to prevent confusion due to time zone crossing. See the UAL4431 flight status page for this flight to view local times or setup timezone preferences in your user account.

Time Position Orientation Groundspeed Altitude Reporting Facility
EDT Latitude Longitude Course Direction KTS MPH feet Rate Location/Type
Fri 03:42:49 PM 29.9597 -95.3439 90° East 147 169 700  Level Houston Center
Fri 03:43:33 PM 29.9475 -95.3042 110° East 193 222 2,600 2,341 Climbing Houston Center
Fri 03:44:11 PM 29.9444 -95.2725 96° East 186 214 3,900 1,475 Climbing Houston Center
Fri 03:44:34 PM 29.9411 -95.2350 96° East 238 274 4,100 194 Climbing Houston Center
Fri 03:45:13 PM 29.9389 -95.1925 93° East 225 259 4,100  Level Houston Center
Fri 03:45:35 PM 29.9350 -95.1442 95° East 264 304 4,100 1,355 Level Houston Center
Fri 03:46:00 PM 29.9834 -94.8983 90° East  Level FlightAware Approximate
Fri 03:46:15 PM 29.9350 -95.1069 90° East 256 295 5,500  Level Houston Center
Fri 03:46:37 PM 29.9394 -95.0569 84° East 273 314 7,000 2,903 Climbing Houston Center
Fri 03:47:00 PM 29.9834 -94.7895 90° East  Level FlightAware Approximate
Fri 03:47:17 PM 29.9447 -95.0003 84° East 275 316 8,500  Level Houston Center
Fri 03:47:38 PM 29.9453 -94.9644 89° East 297 342 9,200 2,129 Climbing Houston Center
Fri 03:48:00 PM 29.9833 -94.6807 90° East  Level FlightAware Approximate
Fri 03:48:19 PM 29.9514 -94.9036 83° East 294 338 10,700  Level Houston Center
Fri 03:48:39 PM 29.9528 -94.8647 88° East 318 366 11,000 1,161 Climbing Houston Center
Fri 03:49:21 PM 29.9592 -94.7944 84° East 332 382 11,900 1,377 Climbing Houston Center
Fri 03:49:40 PM 29.9622 -94.7453 86° East 365 420 12,400 1,429 Climbing Houston Center
Fri 03:50:24 PM 29.9681 -94.6775 84° East 361 415 13,400 1,415 Climbing Houston Center
Fri 03:51:26 PM 29.9769 -94.5561 85° East 376 433 14,900 1,500 Climbing Houston Center
Fri 03:52:28 PM 29.9881 -94.4197 85° East 378 435 16,500 1,355 Climbing Houston Center
Fri 03:53:30 PM 29.9961 -94.2978 86° East 382 440 17,700 1,113 Climbing Houston Center
Fri 03:54:32 PM 30.0119 -94.1753 81° East 387 445 18,800 629 Climbing Houston Center
Fri 03:55:34 PM 30.0289 -94.0444 81° East 408 470 19,000 97 Climbing Houston Center
Fri 03:56:36 PM 30.0489 -93.8800 82° East 430 495 19,000  Level Houston Center
Fri 03:57:38 PM 30.0661 -93.7433 82° East 432 497 19,000  Level Houston Center
Fri 03:58:41 PM 30.0817 -93.6081 82° East 431 496 19,000  Level Houston Center
Fri 03:59:43 PM 30.0967 -93.4764 82° East 423 487 19,000  Level Houston Center
Fri 04:00:45 PM 30.1119 -93.3453 82° East 419 482 19,000  Level Houston Center
Fri 04:01:47 PM 30.1306 -93.1875 82° East 418 481 19,000 -581 Level Houston Center
Fri 04:02:49 PM 30.1433 -93.0564 84° East 417 480 17,800 -1,500 Descending Houston Center
Fri 04:03:51 PM 30.1506 -92.9264 86° East 408 470 15,900 -1,935 Descending Houston Center
Fri 04:04:53 PM 30.1558 -92.8014 87° East 394 453 13,800 -1,984 Descending Houston Center
Fri 04:05:55 PM 30.1622 -92.6775 87° East 389 448 11,800 -1,839 Descending Houston Center
Fri 04:06:57 PM 30.1700 -92.5369 86° East 367 422 10,000 -1,488 Descending Houston Center
Fri 04:08:00 PM 30.1731 -92.4386 88° East 319 367 8,700 -1,440 Descending Houston Center
Fri 04:09:02 PM 30.1778 -92.3483 87° East 294 338 7,000 -1,597 Descending Houston Center
Fri 04:10:04 PM 30.2081 -92.2661 67° East 283 326 5,400 -1,452 Descending Houston Center
Fri 04:11:06 PM 30.2489 -92.1925 57° Northeast 275 316 4,000 -1,306 Descending Houston Center
Fri 04:12:08 PM 30.2892 -92.1167 58° Northeast 265 305 2,700 -1,258 Descending Houston Center

Login

Don't have an account? Register now (free) for customized features, flight alerts, and more!